BGA113J EDDW-LFBO

Flight info

Callsign BGA113J
Flight time 2h 12m
Altitude 40000
Route OKWEL1M OKWEL N125 SILQI N872 PAM/N0467F390 N872 NIK DCT KOVIN DCT DUCRA UM728 RESMI UN857 DISAK DCT DIRMO DCT GUERE DCT NARAK NARAK8N
Aircraft A332/H-SDE3GHIJ2J3J5M1RVWXY/LB2D1

Departure

Time 2026-05-04 14:57
Airport Bremen Airport (EDDW)

Arrival

Time 2026-05-04 17:09
Airport Toulouse-Blagnac Airport (LFBO)
Time Latitude Longitude Altitude Speed Heading
2026-05-04 14:19 53.05012 8.80147 24 ft 0 kts 322°
2026-05-04 14:53 53.05012 8.80135 29 ft 1 kts 275°
2026-05-04 14:53 53.05000 8.80129 29 ft 2 kts 188°
2026-05-04 14:53 53.04963 8.80181 27 ft 10 kts 152°
2026-05-04 14:53 53.04904 8.80214 27 ft 9 kts 140°
2026-05-04 14:54 53.04884 8.80364 24 ft 18 kts 101°
2026-05-04 14:54 53.04790 8.80465 24 ft 14 kts 175°
2026-05-04 14:54 53.04733 8.80512 28 ft 11 kts 110°
2026-05-04 14:54 53.04731 8.80692 26 ft 19 kts 87°
2026-05-04 14:55 53.04757 8.80809 25 ft 10 kts 43°
2026-05-04 14:55 53.04777 8.80883 29 ft 4 kts 115°
2026-05-04 14:55 53.04749 8.80894 29 ft 4 kts 194°
2026-05-04 14:55 53.04738 8.80856 29 ft 6 kts 255°
2026-05-04 14:56 53.04733 8.80756 26 ft 11 kts 266°
2026-05-04 14:56 53.04727 8.80507 31 ft 46 kts 268°
2026-05-04 14:56 53.04703 8.79433 30 ft 137 kts 268°
2026-05-04 14:56 53.04660 8.78042 401 ft 170 kts 269°
2026-05-04 14:57 53.04589 8.75939 1293 ft 193 kts 268°
2026-05-04 14:57 53.04536 8.73671 2012 ft 205 kts 270°
2026-05-04 14:57 53.04534 8.71145 2372 ft 232 kts 277°
2026-05-04 14:57 53.05121 8.68587 2940 ft 246 kts 309°
2026-05-04 14:58 53.06568 8.67037 3674 ft 258 kts 343°
2026-05-04 14:58 53.08402 8.66759 4434 ft 270 kts 358°
2026-05-04 14:58 53.10270 8.66827 5368 ft 271 kts 359°
2026-05-04 14:58 53.12158 8.66889 6340 ft 273 kts 356°
2026-05-04 14:59 53.14021 8.66388 7202 ft 272 kts 336°
2026-05-04 14:59 53.15644 8.64809 8111 ft 271 kts 320°
2026-05-04 14:59 53.18591 8.60801 9963 ft 276 kts 317°
2026-05-04 15:00 53.20086 8.58713 10515 ft 291 kts 317°
2026-05-04 15:00 53.21690 8.56475 10909 ft 309 kts 317°
2026-05-04 15:00 53.23336 8.54098 11503 ft 316 kts 312°
2026-05-04 15:01 53.25380 8.47767 12941 ft 318 kts 277°
2026-05-04 15:01 53.25323 8.44088 13680 ft 320 kts 259°
2026-05-04 15:01 53.24744 8.40480 14358 ft 323 kts 253°
2026-05-04 15:01 53.24048 8.36889 15027 ft 325 kts 252°
2026-05-04 15:02 53.23343 8.33291 15721 ft 327 kts 252°
2026-05-04 15:02 53.22639 8.29665 16383 ft 330 kts 252°
2026-05-04 15:02 53.21935 8.26007 17087 ft 332 kts 252°
2026-05-04 15:02 53.21230 8.22328 17759 ft 334 kts 252°
2026-05-04 15:03 53.20520 8.18614 18403 ft 336 kts 253°
2026-05-04 15:03 53.19815 8.14925 18924 ft 339 kts 253°
2026-05-04 15:03 53.19099 8.11172 19488 ft 340 kts 252°
2026-05-04 15:03 53.18383 8.07397 20029 ft 342 kts 252°
2026-05-04 15:04 53.17666 8.03608 20552 ft 344 kts 252°
2026-05-04 15:04 53.16949 7.99808 21079 ft 345 kts 252°
2026-05-04 15:04 53.16225 7.95979 21596 ft 347 kts 252°
2026-05-04 15:04 53.15495 7.92122 22084 ft 349 kts 252°
2026-05-04 15:05 53.14761 7.88254 22590 ft 351 kts 252°
2026-05-04 15:05 53.14026 7.84389 23057 ft 353 kts 252°
2026-05-04 15:05 53.13287 7.80486 23542 ft 354 kts 252°
2026-05-04 15:05 53.12551 7.76605 23913 ft 356 kts 252°
2026-05-04 15:06 53.11802 7.72672 24327 ft 356 kts 252°
2026-05-04 15:06 53.11051 7.68754 24843 ft 353 kts 251°
2026-05-04 15:06 53.10302 7.64880 25380 ft 350 kts 252°
2026-05-04 15:07 53.08834 7.57274 26436 ft 344 kts 251°
2026-05-04 15:07 53.08103 7.53490 26929 ft 342 kts 251°
2026-05-04 15:07 53.07375 7.49736 27409 ft 340 kts 251°
2026-05-04 15:07 53.06650 7.46004 27914 ft 338 kts 251°
2026-05-04 15:08 53.05927 7.42291 28419 ft 336 kts 250°
2026-05-04 15:08 53.05207 7.38607 28902 ft 334 kts 250°
2026-05-04 15:08 53.04492 7.34952 29392 ft 332 kts 250°
2026-05-04 15:08 53.03779 7.31315 29839 ft 330 kts 250°
2026-05-04 15:09 53.03073 7.27722 29994 ft 332 kts 250°
2026-05-04 15:09 53.01605 7.20305 29985 ft 341 kts 249°
2026-05-04 15:10 52.99330 7.09064 29997 ft 343 kts 249°
2026-05-04 15:11 52.97024 6.97781 29990 ft 344 kts 249°
2026-05-04 15:11 52.95481 6.90251 29992 ft 344 kts 249°
2026-05-04 15:12 52.93934 6.82730 29993 ft 344 kts 248°
2026-05-04 15:12 52.92393 6.75268 29993 ft 344 kts 248°
2026-05-04 15:13 52.90837 6.67760 29991 ft 344 kts 248°
2026-05-04 15:13 52.89276 6.60254 29993 ft 345 kts 248°
2026-05-04 15:14 52.87709 6.52753 29987 ft 344 kts 248°
2026-05-04 15:14 52.86137 6.45253 29988 ft 344 kts 248°
2026-05-04 15:15 52.84563 6.37768 29987 ft 344 kts 248°
2026-05-04 15:15 52.82978 6.30269 29985 ft 347 kts 248°
2026-05-04 15:16 52.80578 6.18960 29992 ft 349 kts 248°
2026-05-04 15:17 52.78150 6.07578 29986 ft 349 kts 247°
2026-05-04 15:17 52.75717 5.96222 29987 ft 350 kts 247°
2026-05-04 15:18 52.74092 5.88653 29991 ft 350 kts 247°
2026-05-04 15:19 52.70544 5.78342 29985 ft 345 kts 230°
2026-05-04 15:19 52.65856 5.69354 29985 ft 345 kts 227°
2026-05-04 15:20 52.62689 5.63486 29964 ft 345 kts 227°
2026-05-04 15:20 52.59487 5.57522 29969 ft 349 kts 227°
2026-05-04 15:21 52.56273 5.51512 29968 ft 350 kts 227°
2026-05-04 15:22 52.51451 5.42507 29964 ft 350 kts 227°
2026-05-04 15:22 52.46633 5.33543 29966 ft 350 kts 227°
2026-05-04 15:23 52.43406 5.27558 29968 ft 350 kts 227°
2026-05-04 15:23 52.40176 5.21580 29957 ft 351 kts 226°
2026-05-04 15:24 52.33443 5.09878 29967 ft 353 kts 217°
2026-05-04 15:25 52.29967 5.06389 29967 ft 353 kts 208°
2026-05-04 15:26 52.23360 5.01056 29965 ft 353 kts 206°
2026-05-04 15:26 52.16702 4.95859 29959 ft 354 kts 206°
2026-05-04 15:27 52.10064 4.90620 29975 ft 355 kts 206°
2026-05-04 15:28 52.03382 4.85347 29967 ft 357 kts 205°
2026-05-04 15:29 51.96671 4.80069 29966 ft 357 kts 205°
2026-05-04 15:30 51.80951 4.67780 29968 ft 360 kts 205°
2026-05-04 15:31 51.74182 4.62513 29970 ft 360 kts 205°
2026-05-04 15:32 51.62869 4.53755 29961 ft 361 kts 205°
2026-05-04 15:34 51.51532 4.45036 29965 ft 361 kts 205°
2026-05-04 15:34 51.44718 4.39820 29971 ft 363 kts 204°
2026-05-04 15:35 51.37905 4.34622 29963 ft 363 kts 204°
2026-05-04 15:36 51.31055 4.29419 29967 ft 363 kts 204°
2026-05-04 15:36 51.26484 4.25950 29967 ft 363 kts 204°
2026-05-04 15:37 51.21948 4.22510 29968 ft 363 kts 204°
2026-05-04 15:37 51.17378 4.19055 29967 ft 364 kts 204°
2026-05-04 15:38 51.12745 4.15801 29969 ft 363 kts 202°
2026-05-04 15:38 51.08075 4.12727 29971 ft 363 kts 201°
2026-05-04 15:39 51.03413 4.09676 29971 ft 363 kts 201°
2026-05-04 15:40 50.96427 4.05071 29971 ft 363 kts 202°
2026-05-04 15:40 50.91750 4.01983 29967 ft 363 kts 202°
2026-05-04 15:41 50.87074 3.98903 29971 ft 364 kts 202°
2026-05-04 15:41 50.82413 3.95842 29970 ft 363 kts 201°
2026-05-04 15:42 50.77742 3.92779 29967 ft 363 kts 202°
2026-05-04 15:42 50.73119 3.89753 29979 ft 363 kts 202°
2026-05-04 15:43 50.68453 3.86707 29956 ft 363 kts 202°
2026-05-04 15:43 50.63794 3.83673 29968 ft 363 kts 201°
2026-05-04 15:44 50.59133 3.80644 29972 ft 363 kts 201°
2026-05-04 15:44 50.54457 3.77611 29960 ft 363 kts 202°
2026-05-04 15:45 50.49805 3.74600 29960 ft 363 kts 202°
2026-05-04 15:45 50.45129 3.71580 29957 ft 363 kts 202°
2026-05-04 15:46 50.40445 3.68562 29969 ft 365 kts 202°
2026-05-04 15:46 50.35720 3.65524 29966 ft 368 kts 202°
2026-05-04 15:47 50.30982 3.62484 29965 ft 368 kts 202°
2026-05-04 15:47 50.26266 3.59464 29966 ft 368 kts 202°
2026-05-04 15:48 50.21525 3.56435 29962 ft 368 kts 202°
2026-05-04 15:48 50.14406 3.51899 29963 ft 368 kts 202°
2026-05-04 15:49 50.09760 3.48947 29963 ft 368 kts 202°
2026-05-04 15:49 50.05025 3.45945 29964 ft 368 kts 202°
2026-05-04 15:50 50.00285 3.42945 29968 ft 368 kts 202°
2026-05-04 15:50 49.95550 3.39955 29966 ft 368 kts 202°
2026-05-04 15:51 49.90809 3.36968 29966 ft 367 kts 202°
2026-05-04 15:51 49.86111 3.34014 29965 ft 367 kts 202°
2026-05-04 15:52 49.81381 3.31047 29969 ft 367 kts 202°
2026-05-04 15:52 49.76654 3.28087 29966 ft 367 kts 202°
2026-05-04 15:53 49.71950 3.25149 29969 ft 367 kts 202°
2026-05-04 15:53 49.67220 3.22200 29968 ft 365 kts 202°
2026-05-04 15:54 49.62518 3.19275 29967 ft 364 kts 202°
2026-05-04 15:54 49.57816 3.16355 29966 ft 364 kts 202°
2026-05-04 15:55 49.53114 3.13442 29982 ft 364 kts 201°
2026-05-04 15:55 49.48482 3.10316 29968 ft 364 kts 209°
2026-05-04 15:56 49.44216 3.06255 29970 ft 362 kts 212°
2026-05-04 15:56 49.40005 3.01980 29965 ft 362 kts 212°
2026-05-04 15:57 49.35806 2.97679 29963 ft 362 kts 212°
2026-05-04 15:57 49.31609 2.93409 29962 ft 362 kts 212°
2026-05-04 15:58 49.27424 2.89178 29967 ft 362 kts 212°
2026-05-04 15:58 49.23194 2.84915 29962 ft 361 kts 212°
2026-05-04 15:59 49.19036 2.80735 29955 ft 360 kts 212°
2026-05-04 15:59 49.14849 2.76532 29950 ft 360 kts 212°
2026-05-04 16:00 49.10649 2.72326 29944 ft 360 kts 212°
2026-05-04 16:00 49.06458 2.68137 29944 ft 360 kts 212°
2026-05-04 16:01 49.02274 2.63962 29949 ft 359 kts 212°
2026-05-04 16:01 48.98075 2.59783 29940 ft 363 kts 212°
2026-05-04 16:02 48.93840 2.55575 29938 ft 364 kts 212°
2026-05-04 16:03 48.87495 2.49286 29940 ft 364 kts 212°
2026-05-04 16:03 48.83247 2.45087 29941 ft 364 kts 212°
2026-05-04 16:04 48.78992 2.40890 29939 ft 364 kts 212°
2026-05-04 16:04 48.72617 2.34617 29937 ft 364 kts 212°
2026-05-04 16:05 48.68392 2.30470 29940 ft 364 kts 212°
2026-05-04 16:06 48.62006 2.24219 29940 ft 363 kts 212°
2026-05-04 16:06 48.56187 2.19284 29944 ft 361 kts 200°
2026-05-04 16:07 48.52950 2.17894 29941 ft 361 kts 195°
2026-05-04 16:08 48.43135 2.14737 29941 ft 364 kts 192°
2026-05-04 16:09 48.30792 2.10831 29938 ft 362 kts 191°
2026-05-04 16:09 48.25754 2.10610 29933 ft 364 kts 177°
2026-05-04 16:10 48.20729 2.11512 29933 ft 365 kts 174°
2026-05-04 16:11 48.10763 2.13318 29929 ft 360 kts 179°
2026-05-04 16:12 47.95786 2.14228 29936 ft 359 kts 180°
2026-05-04 16:13 47.86651 2.14758 29936 ft 359 kts 180°
2026-05-04 16:14 47.76670 2.15342 29915 ft 359 kts 180°
2026-05-04 16:16 47.64225 2.16066 29916 ft 359 kts 180°
2026-05-04 16:17 47.51739 2.16789 29912 ft 359 kts 180°
2026-05-04 16:18 47.41774 2.17364 29918 ft 359 kts 180°
2026-05-04 16:19 47.29262 2.18083 29921 ft 360 kts 180°
2026-05-04 16:20 47.16784 2.18796 29924 ft 360 kts 180°
2026-05-04 16:22 47.04337 2.18735 29916 ft 357 kts 185°
2026-05-04 16:23 46.89486 2.16975 29911 ft 357 kts 186°
2026-05-04 16:25 46.74668 2.15266 29908 ft 357 kts 186°
2026-05-04 16:26 46.57330 2.13301 29908 ft 357 kts 186°
2026-05-04 16:28 46.44963 2.11895 29898 ft 358 kts 185°
2026-05-04 16:29 46.27566 2.09917 29900 ft 359 kts 185°
2026-05-04 16:31 46.15123 2.08249 29910 ft 359 kts 188°
2026-05-04 16:32 46.00260 2.05485 29907 ft 360 kts 188°
2026-05-04 16:33 45.90322 2.03653 29913 ft 361 kts 188°
2026-05-04 16:34 45.82853 2.02281 29912 ft 361 kts 188°
2026-05-04 16:35 45.67888 1.99543 29914 ft 362 kts 188°
2026-05-04 16:36 45.60421 1.98173 29914 ft 362 kts 188°
2026-05-04 16:37 45.52938 1.96820 29916 ft 363 kts 188°
2026-05-04 16:38 45.42912 1.95005 29917 ft 364 kts 188°
2026-05-04 16:39 45.30356 1.92729 29920 ft 365 kts 187°
2026-05-04 16:40 45.20242 1.90908 29922 ft 366 kts 187°
2026-05-04 16:41 45.07611 1.88646 29918 ft 368 kts 187°
2026-05-04 16:43 44.94957 1.86390 29640 ft 361 kts 187°
2026-05-04 16:43 44.89981 1.85506 29070 ft 359 kts 187°
2026-05-04 16:43 44.87500 1.85066 28792 ft 360 kts 187°
2026-05-04 16:44 44.77525 1.83300 27723 ft 361 kts 187°
2026-05-04 16:45 44.72672 1.82444 26732 ft 348 kts 187°
2026-05-04 16:46 44.65565 1.81191 24995 ft 341 kts 188°
2026-05-04 16:46 44.60828 1.80358 23760 ft 344 kts 188°
2026-05-04 16:47 44.56089 1.79526 22629 ft 341 kts 188°
2026-05-04 16:47 44.51407 1.78706 21826 ft 338 kts 188°
2026-05-04 16:48 44.44482 1.77500 20573 ft 331 kts 188°
2026-05-04 16:48 44.42197 1.77101 20144 ft 329 kts 188°
2026-05-04 16:49 44.37670 1.76308 19322 ft 327 kts 188°
2026-05-04 16:49 44.33209 1.75529 18491 ft 324 kts 188°
2026-05-04 16:50 44.28847 1.74086 17599 ft 320 kts 206°
2026-05-04 16:50 44.25144 1.70758 16787 ft 318 kts 214°
2026-05-04 16:51 44.21534 1.67258 15955 ft 314 kts 214°
2026-05-04 16:51 44.19726 1.65517 15553 ft 314 kts 214°
2026-05-04 16:51 44.16143 1.62084 14744 ft 311 kts 214°
2026-05-04 16:52 44.12596 1.58697 13922 ft 308 kts 214°
2026-05-04 16:52 44.10833 1.57016 13513 ft 307 kts 214°
2026-05-04 16:53 44.07352 1.53702 12700 ft 304 kts 214°
2026-05-04 16:53 44.02168 1.48777 11506 ft 298 kts 214°
2026-05-04 16:54 44.00453 1.47150 11126 ft 295 kts 214°
2026-05-04 16:55 43.93506 1.43806 10507 ft 259 kts 191°
2026-05-04 16:55 43.89968 1.42983 9875 ft 258 kts 191°
2026-05-04 16:56 43.86434 1.42149 9240 ft 257 kts 191°
2026-05-04 16:56 43.81266 1.42785 8329 ft 260 kts 150°
2026-05-04 16:57 43.79801 1.44257 8025 ft 261 kts 144°
2026-05-04 16:57 43.76963 1.47378 7385 ft 260 kts 143°
2026-05-04 16:58 43.72717 1.51997 6434 ft 257 kts 144°
2026-05-04 16:58 43.71309 1.53513 6113 ft 256 kts 144°
2026-05-04 16:59 43.68496 1.56535 5462 ft 255 kts 143°
2026-05-04 17:00 43.63383 1.62001 4303 ft 254 kts 147°
2026-05-04 17:00 43.58543 1.63055 3637 ft 225 kts 187°
2026-05-04 17:01 43.55540 1.62525 3311 ft 216 kts 187°
2026-05-04 17:01 43.52645 1.62029 2989 ft 199 kts 187°
2026-05-04 17:02 43.49966 1.61511 2992 ft 193 kts 195°
2026-05-04 17:02 43.47947 1.59290 2992 ft 193 kts 244°
2026-05-04 17:03 43.47537 1.57527 3001 ft 194 kts 255°
2026-05-04 17:03 43.47255 1.55717 2995 ft 194 kts 258°
2026-05-04 17:03 43.47653 1.52197 3033 ft 179 kts 304°
2026-05-04 17:04 43.49363 1.50223 3000 ft 146 kts 322°
2026-05-04 17:04 43.50942 1.48606 3009 ft 141 kts 319°
2026-05-04 17:05 43.52495 1.46998 2873 ft 139 kts 320°
2026-05-04 17:05 43.54038 1.45398 2462 ft 139 kts 320°
2026-05-04 17:06 43.55562 1.43815 2088 ft 131 kts 318°
2026-05-04 17:06 43.56261 1.43085 1911 ft 124 kts 318°
2026-05-04 17:07 43.57649 1.41640 1584 ft 126 kts 318°
2026-05-04 17:07 43.58114 1.41155 1465 ft 127 kts 319°
2026-05-04 17:07 43.59075 1.40153 1226 ft 133 kts 320°
2026-05-04 17:07 43.59855 1.39357 1011 ft 146 kts 321°
2026-05-04 17:08 43.60669 1.38474 870 ft 150 kts 322°
2026-05-04 17:08 43.62228 1.36867 506 ft 130 kts 320°
2026-05-04 17:08 43.62836 1.36231 485 ft 82 kts 323°
2026-05-04 17:09 43.63057 1.36002 490 ft 19 kts 315°
2026-05-04 17:09 43.63049 1.35857 487 ft 15 kts 237°
2026-05-04 17:09 43.62977 1.35795 490 ft 13 kts 176°
2026-05-04 17:10 43.62778 1.35983 490 ft 19 kts 142°
2026-05-04 17:10 43.62569 1.36004 487 ft 11 kts 234°
2026-05-04 17:11 43.62528 1.35928 487 ft 10 kts 233°
2026-05-04 17:11 43.62509 1.35887 493 ft 2 kts 252°
2026-05-04 17:11 43.62538 1.35831 492 ft 4 kts 324°
2026-05-04 17:12 43.62553 1.35816 495 ft 0 kts 323°